CW8440 Weather Reports


time (UTC)temp
C
wind
direction
speed
KPH
gust
KPH
rain 1hr
cm
rain 24hr
cm
rain mn
cm
humidity
%
barometer
mb
20260505012250 7 255 0.0 4.8 0.00 0.00 0.00 83 1008.3
20260505011746 7 255 1.6 4.8 0.00 0.00 0.00 82 1008.1
20260505011245 7 242 1.6 4.8 0.00 0.00 0.00 82 1008.0
20260505010746 7 242 0.0 4.8 0.00 0.00 0.00 81 1007.9
20260505010519 8 238 0.0 6.4 0.00 0.00 0.00 80 1007.9
20260505005746 8 238 0.0 6.4 0.00 0.00 0.00 80 1007.9
20260505005244 8 237 1.6 14.5 0.00 0.00 0.00 79 1007.7
20260505004746 8 238 3.2 14.5 0.00 0.00 0.00 80 1007.7
20260505004243 8 257 4.8 14.5 0.00 0.00 0.00 80 1007.6
20260505003742 8 250 4.8 14.5 0.00 0.00 0.00 80 1007.6
20260505003245 8 250 4.8 12.9 0.00 0.00 0.00 80 1007.5
20260505002741 8 200 6.4 12.9 0.00 0.00 0.00 80 1007.5
20260505002515 8 234 6.4 12.9 0.00 0.00 0.00 80 1007.5
20260505002012 8 227 6.4 12.9 0.00 0.00 0.00 80 1007.4
20260505001240 8 254 6.4 12.9 0.00 0.00 0.00 80 1007.3
20260505000741 8 224 4.8 12.9 0.00 0.00 0.00 81 1007.3
20260505000243 8 223 4.8 14.5 0.00 0.00 0.00 81 1007.2
20260504235738 8 211 8.0 14.5 0.00 0.00 0.00 81 1007.1
20260504235240 8 203 8.0 14.5 0.00 0.00 0.00 82 1007.1
20260504234739 7 193 6.4 14.5 0.00 0.00 0.00 83 1007.0
20260504234240 7 188 4.8 9.7 0.00 0.00 0.00 83 1007.0
20260504233738 7 200 3.2 6.4 0.00 0.00 0.00 82 1006.9
20260504232739 8 175 1.6 8.0 0.00 0.00 0.00 80 1006.5
20260504232240 8 165 1.6 6.4 0.00 0.00 0.00 79 1006.6
20260504231740 8 186 3.2 16.1 0.00 0.00 0.00 77 1006.5
20260504231241 9 202 3.2 16.1 0.00 0.00 0.00 75 1006.5
20260504230739 10 186 3.2 17.7 0.00 0.00 0.00 74 1006.4
20260504230239 11 174 4.8 17.7 0.00 0.00 0.00 72 1006.3
20260504225738 11 214 4.8 9.7 0.00 0.00 0.00 71 1006.1
20260504224738 11 210 4.8 9.7 0.00 0.00 0.00 71 1006.1
20260504224240 11 213 4.8 9.7 0.00 0.00 0.00 71 1006.1
20260504223740 11 199 4.8 12.9 0.00 0.00 0.00 71 1006.0
20260504223239 11 223 3.2 12.9 0.00 0.00 0.00 70 1006.1
20260504222741 12 230 4.8 12.9 0.00 0.00 0.00 68 1006.1
20260504222509 12 215 6.4 12.9 0.00 0.00 0.00 66 1006.0
20260504221739 12 225 4.8 12.9 0.00 0.00 0.00 65 1006.0
20260504221240 12 239 4.8 12.9 0.00 0.00 0.00 65 1006.0
20260504220739 12 248 6.4 14.5 0.00 0.00 0.00 64 1005.8
20260504220510 12 191 4.8 14.5 0.00 0.00 0.00 65 1005.8
20260504220010 13 206 6.4 17.7 0.00 0.00 0.00 64 1005.7
20260504215240 13 249 6.4 17.7 0.00 0.00 0.00 64 1005.7
20260504214740 13 244 8.0 17.7 0.00 0.00 0.00 63 1005.6
20260504214238 13 245 9.7 17.7 0.00 0.00 0.00 63 1005.6
20260504214012 13 269 9.7 20.9 0.00 0.00 0.00 63 1005.7
20260504213509 13 270 11.3 20.9 0.00 0.00 0.00 63 1005.7
20260504212739 13 250 11.3 20.9 0.00 0.00 0.00 63 1005.8
20260504212239 13 215 9.7 20.9 0.00 0.00 0.00 62 1005.7
20260504211739 13 228 9.7 19.3 0.00 0.00 0.00 62 1005.8
20260504211510 13 252 9.7 17.7 0.00 0.00 0.00 62 1005.7
20260504210740 13 207 9.7 17.7 0.00 0.00 0.00 62 1005.6
20260504210239 13 263 9.7 25.7 0.00 0.00 0.00 63 1005.8
20260504205738 13 259 11.3 25.7 0.00 0.00 0.00 61 1005.7
20260504205240 13 268 12.9 25.7 0.00 0.00 0.00 61 1005.6
20260504204739 13 247 12.9 25.7 0.00 0.00 0.00 60 1005.5
20260504204239 13 271 12.9 27.4 0.00 0.00 0.00 60 1005.5
20260504203737 13 209 12.9 27.4 0.00 0.00 0.00 59 1005.5
20260504203236 13 275 11.3 22.5 0.00 0.03 0.00 59 1005.5
20260504203008 13 293 9.7 22.5 0.00 0.03 0.00 59 1005.4
20260504202234 13 235 8.0 22.5 0.00 0.03 0.00 61 1005.4
20260504201736 13 225 9.7 22.5 0.00 0.03 0.00 61 1005.4
20260504201236 13 234 9.7 22.5 0.00 0.03 0.00 60 1005.5
20260504200734 13 267 11.3 20.9 0.00 0.05 0.00 62 1005.4
20260504200236 12 261 11.3 20.9 0.00 0.05 0.00 63 1005.5
20260504200006 12 234 9.7 19.3 0.00 0.05 0.00 63 1005.5
20260504195234 12 251 9.7 20.9 0.00 0.05 0.00 66 1005.5
20260504194737 12 206 9.7 20.9 0.00 0.05 0.00 66 1005.5
20260504194234 12 252 8.0 16.1 0.00 0.05 0.00 65 1005.5
20260504193734 12 224 8.0 16.1 0.00 0.05 0.00 65 1005.5
20260504193233 12 270 6.4 14.5 0.00 0.05 0.00 68 1005.4
20260504192739 11 271 6.4 16.1 0.00 0.05 0.00 69 1005.7
20260504192734 11 243 8.0 16.1 0.00 0.05 0.00 68 1005.5
20260504192003 11 232 6.4 16.1 0.00 0.05 0.00 72 1005.9
20260504191505 10 254 8.0 16.1 0.00 0.05 0.00 72 1005.9
20260504190732 10 258 6.4 14.5 0.00 0.05 0.00 73 1006.0
20260504190233 10 267 8.0 14.5 0.00 0.05 0.00 73 1006.1
20260504185733 10 210 8.0 20.9 0.00 0.05 0.00 73 1006.1
20260504185505 10 242 9.7 20.9 0.00 0.08 0.00 72 1006.3
20260504184733 10 246 11.3 24.1 0.00 0.08 0.00 71 1006.2
20260504184230 10 280 12.9 24.1 0.00 0.08 0.00 71 1006.2
20260504183732 10 286 11.3 22.5 0.00 0.08 0.00 69 1006.2
20260504183231 10 249 11.3 22.5 0.00 0.08 0.00 69 1006.1
20260504182730 10 244 12.9 24.1 0.00 0.10 0.00 67 1006.1
20260504182231 10 249 12.9 24.1 0.00 0.10 0.00 67 1006.0
20260504181730 10 251 11.3 24.1 0.00 0.13 0.00 68 1006.0
20260504181501 10 248 11.3 24.1 0.00 0.13 0.00 69 1006.0
20260504180730 10 271 9.7 20.9 0.00 0.15 0.00 69 1005.9
20260504180231 10 240 8.0 20.9 0.00 0.18 0.00 69 1005.8
20260504175730 10 218 8.0 25.7 0.00 0.18 0.00 70 1005.7
20260504175228 10 245 9.7 25.7 0.00 0.20 0.00 70 1005.8
20260504174728 10 276 11.3 25.7 0.00 0.23 0.00 69 1005.9
20260504174229 11 253 11.3 25.7 0.00 0.25 0.00 68 1005.8
20260504173728 11 240 11.3 22.5 0.00 0.28 0.00 66 1005.9
20260504173459 11 244 9.7 22.5 0.00 0.30 0.00 67 1005.8
20260504172733 11 194 11.3 30.6 0.00 0.33 0.00 66 1005.7
20260504172729 11 203 11.3 22.5 0.00 0.33 0.00 68 1005.7
20260504171728 12 223 12.9 30.6 0.00 0.33 0.00 65 1005.7
20260504171226 11 230 12.9 32.2 0.00 0.36 0.00 68 1005.7
20260504170727 11 174 14.5 32.2 0.00 0.38 0.00 67 1005.5
20260504170227 11 248 12.9 27.4 0.00 0.38 0.00 69 1005.5
20260504160224 11 240 11.3 30.6 0.00 0.56 0.00 63 1005.8
20260504150724 11 222 12.9 20.9 0.00 0.76 0.00 66 1006.7
20260504150453 11 222 14.5 22.5 0.00 0.79 0.00 65 1006.9
20260504140721 10 246 14.5 27.4 0.00 1.02 0.00 65 1007.4
20260504140220 10 231 11.3 24.1 0.00 1.02 0.00 66 1007.3
20260504130717 8 284 6.4 14.5 0.00 1.19 0.00 68 1007.5
20260504130216 8 218 6.4 17.7 0.00 1.22 0.00 69 1007.4
20260504120217 7 267 8.0 22.5 0.00 1.37 0.00 72 1007.8
20260504110715 5 256 4.8 12.9 0.00 1.65 0.00 81 1007.7
20260504110217 5 240 4.8 11.3 0.00 1.65 0.00 82 1007.7
20260504100445 2 245 3.2 6.4 0.00 1.93 0.00 87 1007.1
20260504081708 2 285 3.2 9.7 0.00 2.21 0.00 86 1006.5
20260504081701 2 259 3.2 11.3 0.00 2.18 0.00 86 1006.6
20260504080702 2 250 4.8 9.7 0.00 2.21 0.00 85 1006.5
20260504080202 2 251 3.2 12.9 0.00 2.24 0.00 85 1006.5
20260504070159 2 279 4.8 12.9 0.00 2.41 0.00 84 1006.1
20260504060155 2 242 3.2 12.9 0.00 2.59 0.00 85 1005.5
20260504050650 3 283 8.0 17.7 0.00 2.67 0.00 84 1005.2
20260504050150 3 264 8.0 19.3 0.00 2.67 0.00 84 1005.2
20260504045651 3 286 9.7 19.3 0.00 2.67 0.00 84 1005.2
20260504045421 3 286 8.0 17.7 0.00 2.67 0.00 84 1005.2
20260504044651 3 250 6.4 16.1 0.00 2.67 0.00 84 1005.1
20260504044151 3 281 6.4 16.1 0.00 2.67 0.00 84 1005.1
20260504043650 3 278 6.4 16.1 0.00 2.67 0.00 83 1005.1
20260504043150 3 286 8.0 16.1 0.00 2.69 0.00 83 1005.0
20260504042649 3 254 8.0 16.1 0.00 2.69 0.00 83 1005.0
20260504042149 3 270 6.4 17.7 0.00 2.69 0.00 83 1004.9
20260504041649 3 277 6.4 17.7 0.00 2.69 0.00 83 1004.9
20260504041148 3 272 8.0 17.7 0.00 2.69 0.00 83 1004.9
20260504040650 3 275 6.4 17.7 0.00 2.69 0.00 82 1004.8
20260504040150 3 258 6.4 16.1 0.00 2.69 0.00 82 1004.8
20260504035646 3 271 8.0 16.1 0.00 2.69 2.69 82 1004.7
20260504035148 3 268 6.4 16.1 0.00 2.69 2.69 82 1004.7
20260504034648 3 271 6.4 16.1 0.00 2.69 2.69 82 1004.6
20260504034147 3 294 6.4 16.1 0.00 2.69 2.69 82 1004.6
20260504033648 3 279 6.4 16.1 0.00 2.69 2.69 83 1004.6
20260504033417 3 277 6.4 16.1 0.00 2.69 2.69 83 1004.6
20260504032918 3 274 6.4 16.1 0.00 2.69 2.69 83 1004.6
20260504032147 3 254 6.4 16.1 0.00 2.69 2.69 83 1004.5
20260504031648 3 305 6.4 16.1 0.00 2.69 2.69 83 1004.5
20260504031418 3 266 8.0 16.1 0.00 2.69 2.69 83 1004.5
20260504031313 3 259 6.4 14.5 0.00 2.69 2.69 83 1004.4
20260504030421 3 262 6.4 14.5 0.00 2.69 2.69 83 1004.3
20260504025918 3 317 8.0 19.3 0.00 2.69 2.69 84 1004.2
20260504025148 3 271 8.0 19.3 0.00 2.69 2.69 84 1004.1
20260504024648 4 290 8.0 19.3 0.00 2.69 2.69 84 1004.2
20260504024147 4 283 8.0 19.3 0.00 2.69 2.69 85 1004.2
20260504023648 4 296 8.0 20.9 0.00 2.69 2.69 85 1004.2
20260504023147 4 286 8.0 20.9 0.00 2.69 2.69 86 1004.1
20260504022647 4 299 9.7 20.9 0.00 2.69 2.69 87 1004.1
20260504022147 4 304 9.7 20.9 0.00 2.69 2.69 88 1004.0
20260504021647 4 278 8.0 20.9 0.00 2.69 2.69 89 1003.9
20260504021147 4 295 8.0 20.9 0.00 2.69 2.69 90 1003.9
20260504020646 4 286 6.4 17.7 0.00 2.69 2.69 90 1004.0
20260504020146 4 284 6.4 17.7 0.00 2.69 2.69 91 1003.8
20260504015647 5 274 6.4 17.7 0.00 2.69 2.69 91 1003.8
20260504015149 5 235 6.4 14.5 0.00 2.69 2.69 91 1003.7
20260504014648 5 271 6.4 14.5 0.00 2.69 2.69 91 1003.7
20260504014147 5 270 6.4 14.5 0.00 2.69 2.69 92 1003.6
20260504013647 5 263 4.8 12.9 0.00 2.69 2.69 92 1003.5
20260504013419 5 261 4.8 12.9 0.00 2.69 2.69 91 1003.5
20260504012648 5 282 4.8 12.9 0.00 2.69 2.69 91 1003.4